Terminal Aerodrome Forecast
Issued by NWS

Home | Current Version | Previous Version | Graphics & Text | Print | Product List | Glossary Off
Versions: 1 2 3 4 5 6 7 8 9 10 11 12 13 14 15 16 17 18 19 20 21 22 23 24 25 26 27 28 29 30 31 32 33 34 35 36 37 38 39 40 41 42 43 44 45 46 47 48 49 50

575
FTUS43 KDDC 241736
TAFGCK
TAF
KGCK 241736Z 2418/2518 18007KT P6SM BKN005 OVC030
      TEMPO 2420/2424 3SM -RA BR
     FM250000 18007KT P6SM VCTS OVC030CB
     FM250900 VRB06KT 3SM -RA BR OVC007=

USA.gov is the U.S. government's official web portal to all federal, state and local government web resources and services.